Flag for United Arab Emirates Weather past 2 weeks in Abu Dhabi, Abu Dhabi, United Arab Emirates

Now
68 °F

Passing clouds.


Feels Like: 68 °F
Forecast: 68 / 72 °F
Wind: 7 mph from Northwest

Location: Abu Dhabi Bateen Airport

Current Time: Dec 19, 2014 at 1:56:23 AM

Latest Report: Dec 19, 2014 at 1:00 AM


Visibility: N/A

Pressure: 30.15 "Hg

Humidity: 60%

Dew point: 54 °F

Location of Abu DhabiLocation

Historic Weather in Abu Dhabi — Graph

°F

Abu Dhabi temperature yesterday

Maximum temperature yesterday: 77 °F (at 11:00 AM)
Minimum temperature yesterday: 70 °F (at 11:00 PM)
Average temperature yesterday: 73 °F

Past Weeks' High & Low Weather Summary

 TemperatureHumidityPressure
High84 °F (Dec 8, 3:00 PM)100% (Dec 5, 7:00 PM)30.18 "Hg (Dec 5, 7:00 PM)
Low63 °F (Dec 10, 5:00 AM)20% (Dec 14, 2:00 PM)29.89 "Hg (Dec 4, 9:00 AM)
Average73 °F64%30.08 "Hg
* Reported Midnight between Dec 3 and Dec 4 — Midnight between Dec 18 and Dec 19, Abu Dhabi, Weather by CustomWeather, © 2014

Note: Actual official high and low records may vary slightly from our data, if they occured in-between our weather recording intervals... More about our weather records

Advertising

Abu Dhabi weather history for previous 24 hours

 ConditionsComfort  
Time TempWeatherWind HumidityBarometerVisibility
12:00 AM
Dec 19
70 °FPassing clouds.5 mph57%30.15 "HgN/A
11:00 PM
Dec 18
70 °FPassing clouds.2 mph60%30.15 "HgN/A
10:00 PM72 °FPassing clouds.5 mph57%30.18 "HgN/A
9:00 PM72 °FPassing clouds.5 mph57%30.15 "HgN/A
8:00 PM72 °FPassing clouds.6 mph57%30.15 "HgN/A
7:00 PM73 °FPassing clouds.12 mph57%30.12 "HgN/A
6:00 PM73 °FPassing clouds.14 mph50%30.09 "HgN/A
5:00 PM75 °FPassing clouds.14 mph47%30.09 "HgN/A
4:00 PM77 °FPassing clouds.17 mph42%30.07 "HgN/A
3:00 PM77 °FPassing clouds.15 mph42%30.09 "HgN/A
2:00 PM77 °FScattered clouds.17 mph54%30.09 "HgN/A
1:00 PM77 °FPassing clouds.15 mph54%30.12 "HgN/A
12:00 PM77 °FPassing clouds.12 mph51%30.15 "HgN/A
11:00 AM77 °FPassing clouds.14 mph57%30.15 "HgN/A
10:00 AM75 °FPassing clouds.16 mph65%30.15 "HgN/A
9:00 AM73 °FPassing clouds.13 mph69%30.15 "HgN/A
8:00 AM72 °FScattered clouds.12 mph73%30.12 "HgN/A
7:00 AM72 °FScattered clouds.10 mph73%30.12 "HgN/A
6:00 AM72 °FPassing clouds.13 mph73%30.09 "HgN/A
5:00 AM72 °FPassing clouds.10 mph73%30.09 "HgN/A
4:00 AM72 °FPassing clouds.7 mph78%30.09 "HgN/A
3:00 AM72 °FPassing clouds.12 mph78%30.09 "HgN/A
2:00 AM72 °FPassing clouds.10 mph73%30.12 "HgN/A
1:00 AM72 °FPassing clouds.8 mph73%30.12 "HgN/A
Weather by CustomWeather, © 2014

See weather overviewHow to use our weather pages